When you browse on this site, cookies collect data to enhance your experience and personalize the content and advertising you see.
Visit our Privacy Policy to learn more. By continuing to use the site, you agree to this use of cookies and data.
  • Em Portugal
  • Lista de países
  • Para 7 dias
  • Temperatura da água
  • Mapa do tempo
  • Widgets de tempo
  • user-avatar
    Iniciar Sessão

    Previsão horária em Petrikovo

    Hoje, 21 Janeiro, Terça-feira

    Tempo Temperatura Precipitação Vento Pressão Humidade
    00:00 -1°C° 0.1 mm 5 m/s 743 mmHg 89%
    01:00 -1°C° 0.1 mm 5 m/s 743 mmHg 91%
    02:00 -1°C° 0.1 mm 5 m/s 742 mmHg 92%
    03:00 -1°C° 0.2 mm 5 m/s 741 mmHg 91%
    04:00 -1°C° 0.2 mm 6 m/s 740 mmHg 90%
    05:00 -1°C° 0.2 mm 6 m/s 739 mmHg 89%
    06:00 -1°C° 0.1 mm 6 m/s 738 mmHg 90%
    07:00 -1°C° 0.1 mm 6 m/s 738 mmHg 90%
    08:00 +1°C° 0.1 mm 6 m/s 737 mmHg 91%
    09:00 +1°C° 0 mm 6 m/s 737 mmHg 90%
    10:00 +2°C° 0 mm 6 m/s 736 mmHg 90%
    11:00 +2°C° 0 mm 6 m/s 736 mmHg 89%
    12:00 +2°C° 0.4 mm 5 m/s 735 mmHg 90%
    13:00 +3°C° 0.4 mm 5 m/s 734 mmHg 92%
    14:00 +3°C° 0.4 mm 5 m/s 734 mmHg 93%
    15:00 +3°C° 1.5 mm 5 m/s 733 mmHg 93%
    16:00 +3°C° 1.5 mm 5 m/s 732 mmHg 93%
    17:00 +3°C° 1.5 mm 5 m/s 731 mmHg 94%
    18:00 +2°C° 0.5 mm 6 m/s 732 mmHg 87%
    19:00 +1°C° 0.5 mm 6 m/s 732 mmHg 80%
    20:00 -1°C° 0.5 mm 7 m/s 732 mmHg 73%
    21:00 -1°C° 0 mm 7 m/s 733 mmHg 72%
    22:00 -2°C° 0 mm 7 m/s 733 mmHg 71%
    23:00 -3°C° 0 mm 7 m/s 733 mmHg 71%

    Amanhã, 22 Janeiro, Quarta-feira

    Tempo Temperatura Precipitação Vento Pressão Humidade
    00:00 -3°C° 0 mm 7 m/s 733 mmHg 74%
    01:00 -3°C° 0 mm 6 m/s 733 mmHg 77%
    02:00 -4°C° 0 mm 6 m/s 732 mmHg 80%
    03:00 -4°C° 0.1 mm 6 m/s 732 mmHg 81%
    04:00 -3°C° 0.1 mm 6 m/s 731 mmHg 82%
    05:00 -3°C° 0.1 mm 6 m/s 730 mmHg 83%
    06:00 -4°C° 0.2 mm 6 m/s 730 mmHg 85%
    07:00 -4°C° 0.2 mm 6 m/s 729 mmHg 88%
    08:00 -4°C° 0.2 mm 5 m/s 729 mmHg 90%
    09:00 -4°C° 0.4 mm 6 m/s 729 mmHg 85%
    10:00 -3°C° 0.4 mm 6 m/s 728 mmHg 80%
    11:00 -3°C° 0.4 mm 6 m/s 728 mmHg 75%
    12:00 -3°C° 0.1 mm 6 m/s 728 mmHg 72%
    13:00 -2°C° 0.1 mm 5 m/s 728 mmHg 70%
    14:00 -4°C° 0.1 mm 5 m/s 729 mmHg 68%
    15:00 -4°C° 0 mm 5 m/s 729 mmHg 71%
    16:00 -4°C° 0 mm 5 m/s 729 mmHg 74%
    17:00 -5°C° 0 mm 5 m/s 730 mmHg 77%
    18:00 -5°C° 0 mm 6 m/s 730 mmHg 76%
    19:00 -5°C° 0 mm 6 m/s 731 mmHg 76%
    20:00 -5°C° 0 mm 6 m/s 731 mmHg 75%
    21:00 -6°C° 0 mm 6 m/s 732 mmHg 74%
    22:00 -6°C° 0 mm 6 m/s 732 mmHg 72%
    23:00 -8°C° 0 mm 6 m/s 733 mmHg 70%

    Depois de amanhã, 23 Janeiro, Quinta-feira

    Tempo Temperatura Precipitação Vento Pressão Humidade
    00:00 -8°C° 0 mm 6 m/s 734 mmHg 70%
    01:00 -8°C° 0 mm 6 m/s 734 mmHg 69%
    02:00 -8°C° 0 mm 6 m/s 735 mmHg 69%
    03:00 -9°C° 0 mm 6 m/s 735 mmHg 65%
    04:00 -9°C° 0 mm 6 m/s 736 mmHg 61%
    05:00 -9°C° 0 mm 6 m/s 736 mmHg 57%
    06:00 -9°C° 0 mm 6 m/s 737 mmHg 56%
    07:00 -8°C° 0 mm 5 m/s 737 mmHg 55%
    08:00 -8°C° 0 mm 5 m/s 737 mmHg 53%
    09:00 -8°C° 0 mm 6 m/s 738 mmHg 54%
    10:00 -8°C° 0 mm 6 m/s 738 mmHg 55%
    11:00 -7°C° 0 mm 7 m/s 738 mmHg 56%
    12:00 -6°C° 0 mm 6 m/s 739 mmHg 55%
    13:00 -6°C° 0 mm 6 m/s 739 mmHg 54%
    14:00 -6°C° 0 mm 6 m/s 739 mmHg 53%
    15:00 -6°C° 0 mm 5 m/s 740 mmHg 56%
    16:00 -7°C° 0 mm 4 m/s 740 mmHg 60%
    17:00 -7°C° 0 mm 4 m/s 740 mmHg 64%
    18:00 -6°C° 0 mm 3 m/s 741 mmHg 66%
    19:00 -6°C° 0 mm 3 m/s 741 mmHg 69%
    20:00 -5°C° 0 mm 2 m/s 741 mmHg 71%
    21:00 -6°C° 0 mm 3 m/s 741 mmHg 73%
    22:00 -6°C° 0 mm 3 m/s 741 mmHg 74%
    23:00 -5°C° 0 mm 3 m/s 740 mmHg 75%

    24 Janeiro, Sexta-feira

    Tempo Temperatura Precipitação Vento Pressão Humidade
    00:00 -5°C° 0 mm 3 m/s 740 mmHg 80%
    01:00 -5°C° 0 mm 4 m/s 739 mmHg 85%
    02:00 -5°C° 0 mm 4 m/s 739 mmHg 91%
    03:00 -4°C° 0.3 mm 4 m/s 738 mmHg 91%
    04:00 -5°C° 0.3 mm 5 m/s 737 mmHg 91%
    05:00 -5°C° 0.3 mm 5 m/s 737 mmHg 92%
    06:00 -4°C° 0 mm 5 m/s 736 mmHg 92%
    07:00 -3°C° 0 mm 4 m/s 736 mmHg 92%
    08:00 -3°C° 0 mm 4 m/s 736 mmHg 92%
    09:00 -2°C° 0.1 mm 4 m/s 736 mmHg 92%
    10:00 -1°C° 0.1 mm 4 m/s 736 mmHg 92%
    11:00 -1°C° 0.1 mm 4 m/s 735 mmHg 92%
    12:00 0°C° 0 mm 4 m/s 736 mmHg 91%
    13:00 0°C° 0 mm 4 m/s 736 mmHg 90%
    14:00 +1°C° 0 mm 4 m/s 736 mmHg 89%
    15:00 0°C° 0 mm 4 m/s 736 mmHg 90%
    16:00 0°C° 0 mm 4 m/s 736 mmHg 92%
    17:00 0°C° 0 mm 4 m/s 736 mmHg 94%
    18:00 0°C° 0.1 mm 4 m/s 736 mmHg 94%
    19:00 0°C° 0.1 mm 4 m/s 736 mmHg 95%
    20:00 +1°C° 0.1 mm 3 m/s 736 mmHg 95%
    21:00 0°C° 0.1 mm 4 m/s 735 mmHg 95%
    22:00 0°C° 0.1 mm 4 m/s 735 mmHg 95%
    23:00 0°C° 0.1 mm 4 m/s 735 mmHg 94%

    25 Janeiro, Sábado

    Tempo Temperatura Precipitação Vento Pressão Humidade
    00:00 0°C° 0.1 mm 4 m/s 734 mmHg 94%
    01:00 +1°C° 0.1 mm 4 m/s 734 mmHg 93%
    02:00 +1°C° 0.1 mm 4 m/s 734 mmHg 93%
    03:00 0°C° 0.1 mm 5 m/s 734 mmHg 93%
    04:00 0°C° 0.1 mm 5 m/s 734 mmHg 93%
    05:00 0°C° 0.1 mm 5 m/s 734 mmHg 93%
    06:00 0°C° 0 mm 5 m/s 734 mmHg 94%
    07:00 0°C° 0 mm 4 m/s 734 mmHg 95%
    08:00 0°C° 0 mm 4 m/s 734 mmHg 96%
    09:00 0°C° 0.2 mm 4 m/s 734 mmHg 96%
    10:00 +1°C° 0.2 mm 4 m/s 734 mmHg 95%
    11:00 +1°C° 0.2 mm 4 m/s 735 mmHg 95%
    12:00 +1°C° 0.1 mm 4 m/s 735 mmHg 95%
    13:00 +2°C° 0.1 mm 3 m/s 735 mmHg 95%
    14:00 +2°C° 0.1 mm 3 m/s 735 mmHg 95%
    15:00 +1°C° 0 mm 3 m/s 736 mmHg 95%
    16:00 +1°C° 0 mm 3 m/s 736 mmHg 95%
    17:00 +1°C° 0 mm 2 m/s 736 mmHg 96%
    18:00 +1°C° 0 mm 2 m/s 736 mmHg 96%
    19:00 +1°C° 0 mm 2 m/s 737 mmHg 97%
    20:00 -1°C° 0 mm 2 m/s 737 mmHg 97%
    21:00 +1°C° 0 mm 2 m/s 737 mmHg 97%
    22:00 +1°C° 0 mm 2 m/s 737 mmHg 97%
    23:00 +1°C° 0 mm 2 m/s 737 mmHg 97%

    26 Janeiro, Domingo

    Tempo Temperatura Precipitação Vento Pressão Humidade
    00:00 +1°C° 0 mm 2 m/s 737 mmHg 97%
    01:00 +1°C° 0 mm 2 m/s 737 mmHg 96%
    02:00 -1°C° 0 mm 2 m/s 737 mmHg 96%
    03:00 +1°C° 0 mm 2 m/s 737 mmHg 96%
    04:00 +1°C° 0 mm 2 m/s 737 mmHg 96%
    05:00 +1°C° 0 mm 2 m/s 737 mmHg 96%
    06:00 +1°C° 0 mm 2 m/s 738 mmHg 96%
    07:00 +1°C° 0 mm 2 m/s 738 mmHg 97%
    08:00 +2°C° 0 mm 1 m/s 738 mmHg 97%
    09:00 +1°C° 0 mm 2 m/s 738 mmHg 97%
    10:00 +1°C° 0 mm 2 m/s 738 mmHg 97%
    11:00 +2°C° 0 mm 2 m/s 738 mmHg 96%
    12:00 +1°C° 0.1 mm 3 m/s 738 mmHg 96%
    13:00 +1°C° 0.1 mm 3 m/s 738 mmHg 96%
    14:00 +1°C° 0.1 mm 3 m/s 737 mmHg 96%
    15:00 +1°C° 0 mm 3 m/s 737 mmHg 97%
    16:00 +1°C° 0 mm 3 m/s 737 mmHg 97%
    17:00 +1°C° 0 mm 3 m/s 737 mmHg 97%
    18:00 +1°C° 0 mm 3 m/s 737 mmHg 97%
    19:00 +1°C° 0 mm 3 m/s 737 mmHg 96%
    20:00 +1°C° 0 mm 3 m/s 737 mmHg 96%
    21:00 0°C° 0 mm 3 m/s 736 mmHg 94%
    22:00 0°C° 0 mm 3 m/s 736 mmHg 92%
    23:00 -1°C° 0 mm 4 m/s 736 mmHg 90%
    Mostrar mais